Regional Weather Roundup
Issued by NWS

Home | Current Version | Previous Version | Text Only | Print | Product List | Glossary On
Versions: 1 2 3 4 5 6 7 8 9 10 11 12 13 14 15 16 17 18 19 20 21 22 23 24 25 26 27 28 29 30 31 32 33 34 35 36 37 38 39 40 41 42 43 44 45 46 47 48 49 50
000
ASUS43 KDMX 040201
RWRIA

WEATHER ROUNDUP FOR IOWA
NATIONAL WEATHER SERVICE DES MOINES IA
800 PM CST SAT DEC 03 2016

NOTE: "FAIR" INDICATES FEW OR NO CLOUDS BELOW 12,000 FEET WITH NO
SIGNIFICANT WEATHER AND/OR OBSTRUCTIONS TO VISIBILITY.

* - THESE STATIONS ARE NOT NWS STATIONS...THUS NOT UNDER NWS
QUALITY CONTROL.  THEY ALSO DO NOT REPORT WEATHER SUCH
AS PRECIPITATION OR FOG.

IAZ001>003-012>014-020>022-031>034-043>046-040300-
   NORTHWEST IOWA

CITY           SKY/WX    TMP DP  RH WIND       PRES   REMARKS
CARROLL *      LGT SNOW  34  34 100 SE9       30.13F WCI  26
CHEROKEE *     LGT SNOW  32  32 100 S6        30.11F WCI  27
DENISON *      LGT SNOW  34  34 100 SE8       30.10F WCI  27
LE MARS *      CLOUDY    34  32  93 S9G16     30.10F WCI  26
ORANGE CITY *  CLOUDY    34  34 100 S5        30.08F FOG     WCI  30
SHELDON *      CLOUDY    32  32 100 S15       30.07F FOG     WCI  22
SIOUX CITY     LGT SNOW  34  33  96 SE10      30.10F FOG     WCI  26
SPENCER        LGT SNOW  33  33 100 S15       30.11F FOG     WCI  23
STORM LAKE *   LGT SNOW  32  32 100 SE12      30.11F VSB 3/4 WCI  23
$$

IAZ055>058-069>071-079>083-090>094-040300-
   SOUTHWEST IOWA

CITY           SKY/WX    TMP DP  RH WIND       PRES   REMARKS
ATLANTIC *     CLOUDY    34  34 100 E14       30.12F FOG     WCI  24
AUDUBON *      LGT SNOW  34  30  86 SE5       30.13S WCI  30
CLARINDA *       N/A     39  36  87 SE7G13    30.15F WCI  34
COUNCIL BLFS * LGT SNOW  34  34 100 SE10      30.10F WCI  26
CRESTON *      CLOUDY    37  34  87 E10G16    30.14S WCI  30
HARLAN  *      LGT SNOW  34  32  93 SE7       30.15F WCI  28
LAMONI         CLOUDY    40  32  73 SE7       30.14F
RED OAK *      MIX PCPN  37  36  93 SE8       30.12F WCI  31
SHENANDOAH *   MIX PCPN  37  36  93 SE10      30.12F WCI  30
$$

IAZ047>049-059>061-072>074-084-040300-
   CENTRAL IOWA

CITY           SKY/WX    TMP DP  RH WIND       PRES   REMARKS
AMES           LGT RAIN  35  35 100 SE12      30.17F WCI  27
ANKENY *       MIX PCPN  37  37 100 MISG      30.19F
BOONE *        CLOUDY    36  36 100 SE13      30.15F WCI  27
CHARITON *       N/A     37  32  81 SE9       30.16F WCI  31
DES MOINES     LGT RAIN  39  33  79 SE10      30.17F WCI  32
GRINNELL*      CLOUDY    36  31  83 E7        30.21F WCI  30
KNOXVILLE *    CLOUDY    37  32  81 E7        30.17F WCI  32
MARSHALLTOWN   CLOUDY    35  33  92 SE9       30.19F WCI  28
NEWTON *       CLOUDY    36  32  87 E10       30.19F WCI  28
PELLA *        CLOUDY    37  32  80 SE8       30.21F WCI  31
PERRY *        DRIZZLE   36  36  99 SE12      30.15F WCI  28
$$

IAZ004>006-015-016-023>025-035-036-040300-
   NORTH CENTRAL IOWA

CITY           SKY/WX    TMP DP  RH WIND       PRES   REMARKS
ALGONA *       CLOUDY    34  34 100 SE10      30.13F FOG     WCI  26
CLARION *      CLOUDY    34  34 100 SE10      30.15F FOG     WCI  26
ESTHERVILLE    CLOUDY    32  32 100 S9        30.11F WCI  24
FORT DODGE *   CLOUDY    34  30  86 SE6       30.14F WCI  29
MASON CITY     LGT SNOW  33  31  92 SE9       30.17F FOG     WCI  25
WEBSTER CITY * MIX PCPN  34  34 100 SE12      30.13F WCI  25
IOWA FALLS *   FLURRIES  35  33  94 SE6       30.19F WCI  30
$$

IAZ007>011-017>019-026>030-037>042-050>054-066-040300-
   NORTHEAST IOWA

CITY           SKY/WX    TMP DP  RH WIND       PRES   REMARKS
CEDAR RAPIDS   CLOUDY    35  30  82 SE6       30.23F WCI  30
CHARLES CITY * MIX PCPN  36  30  80 SE8       30.19F WCI  29
CLINTON *      CLOUDY    34  28  79 S6        30.27F WCI  29
DECORAH *      CLOUDY    32  27  80 SE5       30.20S WCI  27
DUBUQUE        CLOUDY    33  27  78 SE7       30.24F WCI  27
MONTICELLO *   CLOUDY    36  30  80 SE6       30.24F WCI  31
OELWEIN *        N/A     36  32  87 S13       30.21F WCI  27
WATERLOO       CLOUDY    34  32  92 S6        30.21F WCI  29
$$

IAZ064-065-067-068-078-040300-
   EAST CENTRAL IOWA

CITY           SKY/WX    TMP DP  RH WIND       PRES   REMARKS
DAVENPORT      MOCLDY    33  27  78 S6        30.27S WCI  28
IOWA CITY      CLOUDY    36  29  75 SE7       30.27F WCI  30
MUSCATINE *    CLOUDY    36  28  75 SE6       30.28R WCI  31
QUAD CITIES    PTCLDY    34  26  72 SE9       30.27F WCI  27
$$

IAZ062-063-075>077-085>089-095>099-040300-
   SOUTHEAST IOWA

CITY           SKY/WX    TMP DP  RH WIND       PRES   REMARKS
BURLINGTON     CLOUDY    35  30  82 SE10      30.25F WCI  27
FAIRFIELD *    CLOUDY    37  30  75 SE10      30.22F WCI  30
FORT MADISON * CLOUDY    37  30  75 SE9       30.26S WCI  31
KEOKUK *       CLOUDY    37  32  81 SE10      30.24F WCI  30
OSKALOOSA *    CLOUDY    36  31  82 E9        30.21F WCI  29
CENTERVILLE *    N/A     37  32  81 E10       30.18F WCI  30
OTTUMWA        CLOUDY    37  29  72 E12       30.20F WCI  29
WASHINGTON *   CLOUDY    36  30  80 E8        30.25F WCI  29
$$

ABBREVIATIONS USED IN REMARKS
   TC - TEMPERATURES IN CELSIUS
  WCI - WIND CHILL INDEX
   HX - HEAT INDEX
  VSB - VISIBILITY
$$




USA.gov is the U.S. government's official web portal to all federal, state and local government web resources and services.